Year,Month,Day,Hour,Minute,Value (Times are PST for temperature in C)
2021,06,26,00,00,24.60
2021,06,26,00,01,24.50
2021,06,26,00,02,24.50
2021,06,26,00,03,24.50
2021,06,26,00,04,24.50
2021,06,26,00,05,24.50
2021,06,26,00,06,24.50
2021,06,26,00,07,24.50
2021,06,26,00,08,24.50
2021,06,26,00,09,24.50
2021,06,26,00,10,24.50
2021,06,26,00,11,24.40
2021,06,26,00,12,24.40
2021,06,26,00,13,24.40
2021,06,26,00,14,24.40
2021,06,26,00,15,24.40
2021,06,26,00,16,24.40
2021,06,26,00,17,24.40
2021,06,26,00,18,24.40
2021,06,26,00,19,24.30
2021,06,26,00,20,24.30
2021,06,26,00,21,24.30
2021,06,26,00,22,24.30
2021,06,26,00,23,24.30
2021,06,26,00,24,24.20
2021,06,26,00,25,24.20
2021,06,26,00,26,24.20
2021,06,26,00,27,24.10
2021,06,26,00,28,24.10
2021,06,26,00,29,24.10
2021,06,26,00,30,24.10
2021,06,26,00,31,23.90
2021,06,26,00,32,23.90
2021,06,26,00,33,23.80
2021,06,26,00,34,23.80
2021,06,26,00,35,23.80
2021,06,26,00,36,23.80
2021,06,26,00,37,23.80
2021,06,26,00,38,23.70
2021,06,26,00,39,23.70
2021,06,26,00,40,23.70
2021,06,26,00,41,23.70
2021,06,26,00,42,23.70
2021,06,26,00,43,23.70
2021,06,26,00,44,23.70
2021,06,26,00,45,23.70
2021,06,26,00,46,23.70
2021,06,26,00,47,23.70
2021,06,26,00,48,23.60
2021,06,26,00,49,23.60
2021,06,26,00,50,23.50
2021,06,26,00,51,23.40
2021,06,26,00,52,23.30
2021,06,26,00,53,23.30
2021,06,26,00,54,23.30
2021,06,26,00,55,23.20
2021,06,26,00,56,23.10
2021,06,26,00,57,23.00
2021,06,26,00,58,22.90
2021,06,26,00,59,22.80
2021,06,26,01,00,22.70
2021,06,26,01,01,22.60
2021,06,26,01,02,22.50
2021,06,26,01,03,22.40
2021,06,26,01,04,22.30
2021,06,26,01,05,22.30
2021,06,26,01,06,22.20
2021,06,26,01,07,22.10
2021,06,26,01,08,22.00
2021,06,26,01,09,22.00
2021,06,26,01,10,22.00
2021,06,26,01,11,21.90
2021,06,26,01,12,21.80
2021,06,26,01,13,21.70
2021,06,26,01,14,21.70
2021,06,26,01,15,21.60
2021,06,26,01,16,21.60
2021,06,26,01,17,21.60
2021,06,26,01,18,21.60
2021,06,26,01,19,21.40
2021,06,26,01,20,21.40
2021,06,26,01,21,21.30
2021,06,26,01,22,21.20
2021,06,26,01,23,21.10
2021,06,26,01,24,21.00
2021,06,26,01,25,21.00
2021,06,26,01,26,20.90
2021,06,26,01,27,20.90
2021,06,26,01,28,20.80
2021,06,26,01,29,20.80
2021,06,26,01,30,20.80
2021,06,26,01,31,20.80
2021,06,26,01,32,20.70
2021,06,26,01,33,20.60
2021,06,26,01,34,20.50
2021,06,26,01,35,20.50
2021,06,26,01,36,20.30
2021,06,26,01,37,20.20
2021,06,26,01,38,20.00
2021,06,26,01,39,19.90
2021,06,26,01,40,19.70
2021,06,26,01,41,19.50
2021,06,26,01,42,19.30
2021,06,26,01,43,19.20
2021,06,26,01,44,19.10
2021,06,26,01,45,18.90
2021,06,26,01,46,18.80
2021,06,26,01,47,18.60
2021,06,26,01,48,18.50
2021,06,26,01,49,18.30
2021,06,26,01,50,18.20
2021,06,26,01,51,18.10
2021,06,26,01,52,18.10
2021,06,26,01,53,18.00
2021,06,26,01,54,17.90
2021,06,26,01,55,17.80
2021,06,26,01,56,17.80
2021,06,26,01,57,17.70
2021,06,26,01,58,17.60
2021,06,26,01,59,17.50
2021,06,26,02,00,17.50
2021,06,26,02,01,17.50
2021,06,26,02,02,17.40
2021,06,26,02,03,17.30
2021,06,26,02,04,17.30
2021,06,26,02,05,17.30
2021,06,26,02,06,17.20
2021,06,26,02,07,17.20
2021,06,26,02,08,17.20
2021,06,26,02,09,17.10
2021,06,26,02,10,17.10
2021,06,26,02,11,17.10
2021,06,26,02,12,17.00
2021,06,26,02,13,17.00
2021,06,26,02,14,17.00
2021,06,26,02,15,17.00
2021,06,26,02,16,17.00
2021,06,26,02,17,17.10
2021,06,26,02,18,17.10
2021,06,26,02,19,17.10
2021,06,26,02,20,17.20
2021,06,26,02,21,17.30
2021,06,26,02,22,17.30
2021,06,26,02,23,17.30
2021,06,26,02,24,17.30
2021,06,26,02,25,17.40
2021,06,26,02,26,17.50
2021,06,26,02,27,17.50
2021,06,26,02,28,17.60
2021,06,26,02,29,17.60
2021,06,26,02,30,17.70
2021,06,26,02,31,17.70
2021,06,26,02,32,17.70
2021,06,26,02,33,17.80
2021,06,26,02,34,17.90
2021,06,26,02,35,17.90
2021,06,26,02,36,17.90
2021,06,26,02,37,17.90
2021,06,26,02,38,18.00
2021,06,26,02,39,18.10
2021,06,26,02,40,18.20
2021,06,26,02,41,18.20
2021,06,26,02,42,18.20
2021,06,26,02,43,18.30
2021,06,26,02,44,18.30
2021,06,26,02,45,18.40
2021,06,26,02,46,18.50
2021,06,26,02,47,18.50
2021,06,26,02,48,18.60
2021,06,26,02,49,18.60
2021,06,26,02,50,18.70
2021,06,26,02,51,18.70
2021,06,26,02,52,18.80
2021,06,26,02,53,18.90
2021,06,26,02,54,18.90
2021,06,26,02,55,18.90
2021,06,26,02,56,18.90
2021,06,26,02,57,18.90
2021,06,26,02,58,18.90
2021,06,26,02,59,19.00
2021,06,26,03,00,19.10
2021,06,26,03,01,19.10
2021,06,26,03,02,19.20
2021,06,26,03,03,19.30
2021,06,26,03,04,19.30
2021,06,26,03,05,19.40
2021,06,26,03,06,19.40
2021,06,26,03,07,19.50
2021,06,26,03,08,19.50
2021,06,26,03,09,19.60
2021,06,26,03,10,19.60
2021,06,26,03,11,19.70
2021,06,26,03,12,19.80
2021,06,26,03,13,19.90
2021,06,26,03,14,19.90
2021,06,26,03,15,20.10
2021,06,26,03,16,20.20
2021,06,26,03,17,20.20
2021,06,26,03,18,20.40
2021,06,26,03,19,20.60
2021,06,26,03,20,20.70
2021,06,26,03,21,20.80
2021,06,26,03,22,20.90
2021,06,26,03,23,21.00
2021,06,26,03,24,21.00
2021,06,26,03,25,21.00
2021,06,26,03,26,21.10
2021,06,26,03,27,21.00
2021,06,26,03,28,21.00
2021,06,26,03,29,21.00
2021,06,26,03,30,21.00
2021,06,26,03,31,20.90
2021,06,26,03,32,20.80
2021,06,26,03,33,20.70
2021,06,26,03,34,20.60
2021,06,26,03,35,20.60
2021,06,26,03,36,20.50
2021,06,26,03,37,20.40
2021,06,26,03,38,20.30
2021,06,26,03,39,20.30
2021,06,26,03,40,20.20
2021,06,26,03,41,20.20
2021,06,26,03,42,20.20
2021,06,26,03,43,20.20
2021,06,26,03,44,20.20
2021,06,26,03,45,20.20
2021,06,26,03,46,20.20
2021,06,26,03,47,20.20
2021,06,26,03,48,20.20
2021,06,26,03,49,20.20
2021,06,26,03,50,20.20
2021,06,26,03,51,20.20
2021,06,26,03,52,20.10
2021,06,26,03,53,20.10
2021,06,26,03,54,20.10
2021,06,26,03,55,20.00
2021,06,26,03,56,19.90
2021,06,26,03,57,19.90
2021,06,26,03,58,19.90
2021,06,26,03,59,19.90
2021,06,26,04,00,19.90
2021,06,26,04,01,20.00
2021,06,26,04,02,20.10
2021,06,26,04,03,20.10
2021,06,26,04,04,20.20
2021,06,26,04,05,20.30
2021,06,26,04,06,20.40
2021,06,26,04,07,20.50
2021,06,26,04,08,20.70
2021,06,26,04,09,20.80
2021,06,26,04,10,20.90
2021,06,26,04,11,21.00
2021,06,26,04,12,21.10
2021,06,26,04,13,21.20
2021,06,26,04,14,21.30
2021,06,26,04,15,21.30
2021,06,26,04,16,21.40
2021,06,26,04,17,21.40
2021,06,26,04,18,21.40
2021,06,26,04,19,21.40
2021,06,26,04,20,21.40
2021,06,26,04,21,21.40
2021,06,26,04,22,21.50
2021,06,26,04,23,21.40
2021,06,26,04,24,21.40
2021,06,26,04,25,21.40
2021,06,26,04,26,21.40
2021,06,26,04,27,21.40
2021,06,26,04,28,21.40
2021,06,26,04,29,21.40
2021,06,26,04,30,21.30
2021,06,26,04,31,21.30
2021,06,26,04,32,21.30
2021,06,26,04,33,21.20
2021,06,26,04,34,21.20
2021,06,26,04,35,21.10
2021,06,26,04,36,21.00
2021,06,26,04,37,20.90
2021,06,26,04,38,20.90
2021,06,26,04,39,21.00
2021,06,26,04,40,21.00
2021,06,26,04,41,21.10
2021,06,26,04,42,21.10
2021,06,26,04,43,20.90
2021,06,26,04,44,20.70
2021,06,26,04,45,20.50
2021,06,26,04,46,20.40
2021,06,26,04,47,20.20
2021,06,26,04,48,20.20
2021,06,26,04,49,20.10
2021,06,26,04,50,20.10
2021,06,26,04,51,20.00
2021,06,26,04,52,19.90
2021,06,26,04,53,19.90
2021,06,26,04,54,19.90
2021,06,26,04,55,19.90
2021,06,26,04,56,19.90
2021,06,26,04,57,19.90
2021,06,26,04,58,19.90
2021,06,26,04,59,19.80
2021,06,26,05,00,19.80
2021,06,26,05,01,19.70
2021,06,26,05,02,19.70
2021,06,26,05,03,19.70
2021,06,26,05,04,19.60
2021,06,26,05,05,19.60
2021,06,26,05,06,19.50
2021,06,26,05,07,19.40
2021,06,26,05,08,19.40
2021,06,26,05,09,19.40
2021,06,26,05,10,19.30
2021,06,26,05,11,19.30
2021,06,26,05,12,19.30
2021,06,26,05,13,19.30
2021,06,26,05,14,19.30
2021,06,26,05,15,19.40
2021,06,26,05,16,19.40
2021,06,26,05,17,19.40
2021,06,26,05,18,19.50
2021,06,26,05,19,19.50
2021,06,26,05,20,19.60
2021,06,26,05,21,19.60
2021,06,26,05,22,19.60
2021,06,26,05,23,19.60
2021,06,26,05,24,19.60
2021,06,26,05,25,19.60
2021,06,26,05,26,19.60
2021,06,26,05,27,19.60
2021,06,26,05,28,19.60
2021,06,26,05,29,19.60
2021,06,26,05,30,19.60
2021,06,26,05,31,19.60
2021,06,26,05,32,19.60
2021,06,26,05,33,19.50
2021,06,26,05,34,19.50
2021,06,26,05,35,19.40
2021,06,26,05,36,19.40
2021,06,26,05,37,19.30
2021,06,26,05,38,19.20
2021,06,26,05,39,19.10
2021,06,26,05,40,19.10
2021,06,26,05,41,19.10
2021,06,26,05,42,19.10
2021,06,26,05,43,19.20
2021,06,26,05,44,19.30
2021,06,26,05,45,19.40
2021,06,26,05,46,19.50
2021,06,26,05,47,19.50
2021,06,26,05,48,19.60
2021,06,26,05,49,19.70
2021,06,26,05,50,19.90
2021,06,26,05,51,19.90
2021,06,26,05,52,20.00
2021,06,26,05,53,20.10
2021,06,26,05,54,20.20
2021,06,26,05,55,20.30
2021,06,26,05,56,20.30
2021,06,26,05,57,20.40
2021,06,26,05,58,20.40
2021,06,26,05,59,20.50
2021,06,26,06,00,20.50
2021,06,26,06,01,20.50
2021,06,26,06,02,20.60
2021,06,26,06,03,20.70
2021,06,26,06,04,20.70
2021,06,26,06,05,20.80
2021,06,26,06,06,20.90
2021,06,26,06,07,20.90
2021,06,26,06,08,21.00
2021,06,26,06,09,21.00
2021,06,26,06,10,21.10
2021,06,26,06,11,21.10
2021,06,26,06,12,21.10
2021,06,26,06,13,21.20
2021,06,26,06,14,21.30
2021,06,26,06,15,21.30
2021,06,26,06,16,21.30
2021,06,26,06,17,21.30
2021,06,26,06,18,21.30
2021,06,26,06,19,21.40
2021,06,26,06,20,21.40
2021,06,26,06,21,21.40
2021,06,26,06,22,21.50
2021,06,26,06,23,21.60
2021,06,26,06,24,21.60
2021,06,26,06,25,21.60
2021,06,26,06,26,21.60
2021,06,26,06,27,21.60
2021,06,26,06,28,21.60
2021,06,26,06,29,21.60
2021,06,26,06,30,21.60
2021,06,26,06,31,21.60
2021,06,26,06,32,21.60
2021,06,26,06,33,21.60
2021,06,26,06,34,21.60
2021,06,26,06,35,21.60
2021,06,26,06,36,21.70
2021,06,26,06,37,21.70
2021,06,26,06,38,21.70
2021,06,26,06,39,21.70
2021,06,26,06,40,21.70
2021,06,26,06,41,21.80
2021,06,26,06,42,21.80
2021,06,26,06,43,21.80
2021,06,26,06,44,21.90
2021,06,26,06,45,21.90
2021,06,26,06,46,21.90
2021,06,26,06,47,22.00
2021,06,26,06,48,22.00
2021,06,26,06,49,22.00
2021,06,26,06,50,22.10
2021,06,26,06,51,22.10
2021,06,26,06,52,22.10
2021,06,26,06,53,22.20
2021,06,26,06,54,22.20
2021,06,26,06,55,22.20
2021,06,26,06,56,22.30
2021,06,26,06,57,22.30
2021,06,26,06,58,22.30
2021,06,26,06,59,22.40
2021,06,26,07,00,22.40
2021,06,26,07,01,22.40
2021,06,26,07,02,22.40
2021,06,26,07,03,22.40
2021,06,26,07,04,22.40
2021,06,26,07,05,22.40
2021,06,26,07,06,22.40
2021,06,26,07,07,22.40
2021,06,26,07,08,22.40
2021,06,26,07,09,22.30
2021,06,26,07,10,22.30
2021,06,26,07,11,22.30
2021,06,26,07,12,22.30
2021,06,26,07,13,22.30
2021,06,26,07,14,22.30
2021,06,26,07,15,22.30
2021,06,26,07,16,22.30
2021,06,26,07,17,22.30
2021,06,26,07,18,22.30
2021,06,26,07,19,22.40
2021,06,26,07,20,22.40
2021,06,26,07,21,22.40
2021,06,26,07,22,22.40
2021,06,26,07,23,22.40
2021,06,26,07,24,22.50
2021,06,26,07,25,22.50
2021,06,26,07,26,22.50
2021,06,26,07,27,22.50
2021,06,26,07,28,22.50
2021,06,26,07,29,22.60
2021,06,26,07,30,22.60
2021,06,26,07,31,22.60
2021,06,26,07,32,22.50
2021,06,26,07,33,22.60
2021,06,26,07,34,22.60
2021,06,26,07,35,22.50
2021,06,26,07,36,22.50
2021,06,26,07,37,22.50
2021,06,26,07,38,22.60
2021,06,26,07,39,22.60
2021,06,26,07,40,22.60
2021,06,26,07,41,22.60
2021,06,26,07,42,22.50
2021,06,26,07,43,22.50
2021,06,26,07,44,22.50
2021,06,26,07,45,22.50
2021,06,26,07,46,22.50
2021,06,26,07,47,22.50
2021,06,26,07,48,22.50
2021,06,26,07,49,22.50
2021,06,26,07,50,22.50
2021,06,26,07,51,22.60
2021,06,26,07,52,22.60
2021,06,26,07,53,22.60
2021,06,26,07,54,22.70
2021,06,26,07,55,22.70
2021,06,26,07,56,22.70
2021,06,26,07,57,22.70
2021,06,26,07,58,22.70
2021,06,26,07,59,22.70
2021,06,26,08,00,22.80
2021,06,26,08,01,22.80
2021,06,26,08,02,22.90
2021,06,26,08,03,22.90
2021,06,26,08,04,22.90
2021,06,26,08,05,23.10
2021,06,26,08,06,23.10
2021,06,26,08,07,23.10
2021,06,26,08,08,23.20
2021,06,26,08,09,23.20
2021,06,26,08,10,23.30
2021,06,26,08,11,23.30
2021,06,26,08,12,23.30
2021,06,26,08,13,23.40
2021,06,26,08,14,23.50
2021,06,26,08,15,23.60
2021,06,26,08,16,23.60
2021,06,26,08,17,23.70
2021,06,26,08,18,23.70
2021,06,26,08,19,23.70
2021,06,26,08,20,23.70
2021,06,26,08,21,23.70
2021,06,26,08,22,23.70
2021,06,26,08,23,23.70
2021,06,26,08,24,23.60
2021,06,26,08,25,23.60
2021,06,26,08,26,23.60
2021,06,26,08,27,23.60
2021,06,26,08,28,23.50
2021,06,26,08,29,23.50
2021,06,26,08,30,23.60
2021,06,26,08,31,23.60
2021,06,26,08,32,23.70
2021,06,26,08,33,23.70
2021,06,26,08,34,23.70
2021,06,26,08,35,23.70
2021,06,26,08,36,23.70
2021,06,26,08,37,23.70
2021,06,26,08,38,23.60
2021,06,26,08,39,23.60
2021,06,26,08,40,23.60
2021,06,26,08,41,23.70
2021,06,26,08,42,23.70
2021,06,26,08,43,23.70
2021,06,26,08,44,23.70
2021,06,26,08,45,23.70
2021,06,26,08,46,23.70
2021,06,26,08,47,23.70
2021,06,26,08,48,23.70
2021,06,26,08,49,23.70
2021,06,26,08,50,23.70
2021,06,26,08,51,23.70
2021,06,26,08,52,23.80
2021,06,26,08,53,23.90
2021,06,26,08,54,23.90
2021,06,26,08,55,24.00
2021,06,26,08,56,24.10
2021,06,26,08,57,24.10
2021,06,26,08,58,24.10
2021,06,26,08,59,24.00
2021,06,26,09,00,23.90
2021,06,26,09,01,24.00
2021,06,26,09,02,24.10
2021,06,26,09,03,24.10
2021,06,26,09,04,24.10
2021,06,26,09,05,24.10
2021,06,26,09,06,24.10
2021,06,26,09,07,24.10
2021,06,26,09,08,24.20
2021,06,26,09,09,24.20
2021,06,26,09,10,24.30
2021,06,26,09,11,24.30
2021,06,26,09,12,24.30
2021,06,26,09,13,24.30
2021,06,26,09,14,24.30
2021,06,26,09,15,24.40
2021,06,26,09,16,24.50
2021,06,26,09,17,24.50
2021,06,26,09,18,24.60
2021,06,26,09,19,24.60
2021,06,26,09,20,24.70
2021,06,26,09,21,24.70
2021,06,26,09,22,24.80
2021,06,26,09,23,24.80
2021,06,26,09,24,24.80
2021,06,26,09,25,24.80
2021,06,26,09,26,24.80
2021,06,26,09,27,24.80
2021,06,26,09,28,24.80
2021,06,26,09,29,24.80
2021,06,26,09,30,24.80
2021,06,26,09,31,24.80
2021,06,26,09,32,24.80
2021,06,26,09,33,24.80
2021,06,26,09,34,24.90
2021,06,26,09,35,24.90
2021,06,26,09,36,24.90
2021,06,26,09,37,25.00
2021,06,26,09,38,25.00
2021,06,26,09,39,25.10
2021,06,26,09,40,25.20
2021,06,26,09,41,25.20
2021,06,26,09,42,25.30
2021,06,26,09,43,25.30
2021,06,26,09,44,25.40
2021,06,26,09,45,25.40
2021,06,26,09,46,25.50
2021,06,26,09,47,25.50
2021,06,26,09,48,25.50
2021,06,26,09,49,25.60
2021,06,26,09,50,25.60
2021,06,26,09,51,25.60
2021,06,26,09,52,25.60
2021,06,26,09,53,25.60
2021,06,26,09,54,25.60
2021,06,26,09,55,25.60
2021,06,26,09,56,25.50
2021,06,26,09,57,25.50
2021,06,26,09,58,25.40
2021,06,26,09,59,25.40
2021,06,26,10,00,25.40
2021,06,26,10,01,25.30
2021,06,26,10,02,25.30
2021,06,26,10,03,25.30
2021,06,26,10,04,25.40
2021,06,26,10,05,25.40
2021,06,26,10,06,25.50
2021,06,26,10,07,25.60
2021,06,26,10,08,25.70
2021,06,26,10,09,25.80
2021,06,26,10,10,25.80
2021,06,26,10,11,25.80
2021,06,26,10,12,25.80
2021,06,26,10,13,25.80
2021,06,26,10,14,25.70
2021,06,26,10,15,25.70
2021,06,26,10,16,25.70
2021,06,26,10,17,25.70
2021,06,26,10,18,25.70
2021,06,26,10,19,25.80
2021,06,26,10,20,25.90
2021,06,26,10,21,26.00
2021,06,26,10,22,26.10
2021,06,26,10,23,26.20
2021,06,26,10,24,26.30
2021,06,26,10,25,26.40
2021,06,26,10,26,26.40
2021,06,26,10,27,26.40
2021,06,26,10,28,26.40
2021,06,26,10,29,26.40
2021,06,26,10,30,26.40
2021,06,26,10,31,26.50
2021,06,26,10,32,26.60
2021,06,26,10,33,26.60
2021,06,26,10,34,26.70
2021,06,26,10,35,26.80
2021,06,26,10,36,26.90
2021,06,26,10,37,27.00
2021,06,26,10,38,27.00
2021,06,26,10,39,26.90
2021,06,26,10,40,26.80
2021,06,26,10,41,26.70
2021,06,26,10,42,26.60
2021,06,26,10,43,26.60
2021,06,26,10,44,26.60
2021,06,26,10,45,26.60
2021,06,26,10,46,26.60
2021,06,26,10,47,26.70
2021,06,26,10,48,26.70
2021,06,26,10,49,26.80
2021,06,26,10,50,26.80
2021,06,26,10,51,26.90
2021,06,26,10,52,27.00
2021,06,26,10,53,27.20
2021,06,26,10,54,27.30
2021,06,26,10,55,27.40
2021,06,26,10,56,27.60
2021,06,26,10,57,27.60
2021,06,26,10,58,27.70
2021,06,26,10,59,27.80
2021,06,26,11,00,27.80
2021,06,26,11,01,27.80
2021,06,26,11,02,27.90
2021,06,26,11,03,27.90
2021,06,26,11,04,27.90
2021,06,26,11,05,28.00
2021,06,26,11,06,28.00
2021,06,26,11,07,28.10
2021,06,26,11,08,28.10
2021,06,26,11,09,28.10
2021,06,26,11,10,28.10
2021,06,26,11,11,28.20
2021,06,26,11,12,28.30
2021,06,26,11,13,28.20
2021,06,26,11,14,28.20
2021,06,26,11,15,28.10
2021,06,26,11,16,28.10
2021,06,26,11,17,28.20
2021,06,26,11,18,28.30
2021,06,26,11,19,28.30
2021,06,26,11,20,28.40
2021,06,26,11,21,28.50
2021,06,26,11,22,28.50
2021,06,26,11,23,28.40
2021,06,26,11,24,28.40
2021,06,26,11,25,28.40
2021,06,26,11,26,28.40
2021,06,26,11,27,28.40
2021,06,26,11,28,28.30
2021,06,26,11,29,28.20
2021,06,26,11,30,28.20
2021,06,26,11,31,28.20
2021,06,26,11,32,28.20
2021,06,26,11,33,28.20
2021,06,26,11,34,28.20
2021,06,26,11,35,28.20
2021,06,26,11,36,28.20
2021,06,26,11,37,28.20
2021,06,26,11,38,28.30
2021,06,26,11,39,28.50
2021,06,26,11,40,28.60
2021,06,26,11,41,28.60
2021,06,26,11,42,28.70
2021,06,26,11,43,28.80
2021,06,26,11,44,28.80
2021,06,26,11,45,28.80
2021,06,26,11,46,28.80
2021,06,26,11,47,28.80
2021,06,26,11,48,28.80
2021,06,26,11,49,28.80
2021,06,26,11,50,28.90
2021,06,26,11,51,28.90
2021,06,26,11,52,28.80
2021,06,26,11,53,28.70
2021,06,26,11,54,28.70
2021,06,26,11,55,28.60
2021,06,26,11,56,28.60
2021,06,26,11,57,28.60
2021,06,26,11,58,28.50
2021,06,26,11,59,28.40
2021,06,26,12,00,28.40
2021,06,26,12,01,28.30
2021,06,26,12,02,28.40
2021,06,26,12,03,28.60
2021,06,26,12,04,28.60
2021,06,26,12,05,28.70
2021,06,26,12,06,28.80
2021,06,26,12,07,28.90
2021,06,26,12,08,29.10
2021,06,26,12,09,29.20
2021,06,26,12,10,29.20
2021,06,26,12,11,29.20
2021,06,26,12,12,29.20
2021,06,26,12,13,29.10
2021,06,26,12,14,29.00
2021,06,26,12,15,28.90
2021,06,26,12,16,28.80
2021,06,26,12,17,28.70
2021,06,26,12,18,28.60
2021,06,26,12,19,28.60
2021,06,26,12,20,28.60
2021,06,26,12,21,28.60
2021,06,26,12,22,28.70
2021,06,26,12,23,28.80
2021,06,26,12,24,29.00
2021,06,26,12,25,29.10
2021,06,26,12,26,29.20
2021,06,26,12,27,29.30
2021,06,26,12,28,29.30
2021,06,26,12,29,29.20
2021,06,26,12,30,29.20
2021,06,26,12,31,29.20
2021,06,26,12,32,29.20
2021,06,26,12,33,29.20
2021,06,26,12,34,29.20
2021,06,26,12,35,29.20
2021,06,26,12,36,29.20
2021,06,26,12,37,29.10
2021,06,26,12,38,29.10
2021,06,26,12,39,29.20
2021,06,26,12,40,29.30
2021,06,26,12,41,29.20
2021,06,26,12,42,29.10
2021,06,26,12,43,29.00
2021,06,26,12,44,28.90
2021,06,26,12,45,29.10
2021,06,26,12,46,29.20
2021,06,26,12,47,29.20
2021,06,26,12,48,29.30
2021,06,26,12,49,29.40
2021,06,26,12,50,29.50
2021,06,26,12,51,29.40
2021,06,26,12,52,29.50
2021,06,26,12,53,29.60
2021,06,26,12,54,29.60
2021,06,26,12,55,29.70
2021,06,26,12,56,29.70
2021,06,26,12,57,29.60
2021,06,26,12,58,29.60
2021,06,26,12,59,29.60
2021,06,26,13,00,29.60
2021,06,26,13,01,29.70
2021,06,26,13,02,29.70
2021,06,26,13,03,29.70
2021,06,26,13,04,29.60
2021,06,26,13,05,29.60
2021,06,26,13,06,29.60
2021,06,26,13,07,29.50
2021,06,26,13,08,29.40
2021,06,26,13,09,29.40
2021,06,26,13,10,29.40
2021,06,26,13,11,29.40
2021,06,26,13,12,29.40
2021,06,26,13,13,29.50
2021,06,26,13,14,29.50
2021,06,26,13,15,29.50
2021,06,26,13,16,29.60
2021,06,26,13,17,29.70
2021,06,26,13,18,29.90
2021,06,26,13,19,30.00
2021,06,26,13,20,30.10
2021,06,26,13,21,30.20
2021,06,26,13,22,30.30
2021,06,26,13,23,30.40
2021,06,26,13,24,30.40
2021,06,26,13,25,30.30
2021,06,26,13,26,30.20
2021,06,26,13,27,30.10
2021,06,26,13,28,30.10
2021,06,26,13,29,30.10
2021,06,26,13,30,30.20
2021,06,26,13,31,30.30
2021,06,26,13,32,30.40
2021,06,26,13,33,30.60
2021,06,26,13,34,30.80
2021,06,26,13,35,30.90
2021,06,26,13,36,31.00
2021,06,26,13,37,31.00
2021,06,26,13,38,31.00
2021,06,26,13,39,31.00
2021,06,26,13,40,31.00
2021,06,26,13,41,31.00
2021,06,26,13,42,31.00
2021,06,26,13,43,31.00
2021,06,26,13,44,30.90
2021,06,26,13,45,30.90
2021,06,26,13,46,30.80
2021,06,26,13,47,30.70
2021,06,26,13,48,30.70
2021,06,26,13,49,30.70
2021,06,26,13,50,30.70
2021,06,26,13,51,30.60
2021,06,26,13,52,30.60
2021,06,26,13,53,30.70
2021,06,26,13,54,30.70
2021,06,26,13,55,30.70
2021,06,26,13,56,30.70
2021,06,26,13,57,30.60
2021,06,26,13,58,30.40
2021,06,26,13,59,30.30
2021,06,26,14,00,30.30
2021,06,26,14,01,30.20
2021,06,26,14,02,30.20
2021,06,26,14,03,30.10
2021,06,26,14,04,30.10
2021,06,26,14,05,30.10
2021,06,26,14,06,30.00
2021,06,26,14,07,29.90
2021,06,26,14,08,30.00
2021,06,26,14,09,30.10
2021,06,26,14,10,30.10
2021,06,26,14,11,30.10
2021,06,26,14,12,30.20
2021,06,26,14,13,30.30
2021,06,26,14,14,30.30
2021,06,26,14,15,30.30
2021,06,26,14,16,30.30
2021,06,26,14,17,30.30
2021,06,26,14,18,30.30
2021,06,26,14,19,30.30
2021,06,26,14,20,30.40
2021,06,26,14,21,30.40
2021,06,26,14,22,30.60
2021,06,26,14,23,30.60
2021,06,26,14,24,30.80
2021,06,26,14,25,30.80
2021,06,26,14,26,30.80
2021,06,26,14,27,30.90
2021,06,26,14,28,31.00
2021,06,26,14,29,31.10
2021,06,26,14,30,31.10
2021,06,26,14,31,31.10
2021,06,26,14,32,31.20
2021,06,26,14,33,31.30
2021,06,26,14,34,31.40
2021,06,26,14,35,31.50
2021,06,26,14,36,31.70
2021,06,26,14,37,31.80
2021,06,26,14,38,31.90
2021,06,26,14,39,31.90
2021,06,26,14,40,31.90
2021,06,26,14,41,31.80
2021,06,26,14,42,31.70
2021,06,26,14,43,31.60
2021,06,26,14,44,31.60
2021,06,26,14,45,31.60
2021,06,26,14,46,31.60
2021,06,26,14,47,31.70
2021,06,26,14,48,31.70
2021,06,26,14,49,31.70
2021,06,26,14,50,31.60
2021,06,26,14,51,31.50
2021,06,26,14,52,31.30
2021,06,26,14,53,31.20
2021,06,26,14,54,31.10
2021,06,26,14,55,31.00
2021,06,26,14,56,31.00
2021,06,26,14,57,31.00
2021,06,26,14,58,30.90
2021,06,26,14,59,30.90
2021,06,26,15,00,30.90
2021,06,26,15,01,30.90
2021,06,26,15,02,31.00
2021,06,26,15,03,31.10
2021,06,26,15,04,31.10
2021,06,26,15,05,31.10
2021,06,26,15,06,31.10
2021,06,26,15,07,31.10
2021,06,26,15,08,31.10
2021,06,26,15,09,31.10
2021,06,26,15,10,31.20
2021,06,26,15,11,31.20
2021,06,26,15,12,31.30
2021,06,26,15,13,31.50
2021,06,26,15,14,31.60
2021,06,26,15,15,31.80
2021,06,26,15,16,32.00
2021,06,26,15,17,32.20
2021,06,26,15,18,32.20
2021,06,26,15,19,32.10
2021,06,26,15,20,32.10
2021,06,26,15,21,31.90
2021,06,26,15,22,31.80
2021,06,26,15,23,31.60
2021,06,26,15,24,31.50
2021,06,26,15,25,31.40
2021,06,26,15,26,31.40
2021,06,26,15,27,31.40
2021,06,26,15,28,31.40
2021,06,26,15,29,31.60
2021,06,26,15,30,31.70
2021,06,26,15,31,31.70
2021,06,26,15,32,31.90
2021,06,26,15,33,32.00
2021,06,26,15,34,32.10
2021,06,26,15,35,32.30
2021,06,26,15,36,32.50
2021,06,26,15,37,32.60
2021,06,26,15,38,32.70
2021,06,26,15,39,32.80
2021,06,26,15,40,32.70
2021,06,26,15,41,32.50
2021,06,26,15,42,32.40
2021,06,26,15,43,32.30
2021,06,26,15,44,32.20
2021,06,26,15,45,32.20
2021,06,26,15,46,32.20
2021,06,26,15,47,32.20
2021,06,26,15,48,32.30
2021,06,26,15,49,32.40
2021,06,26,15,50,32.50
2021,06,26,15,51,32.60
2021,06,26,15,52,32.80
2021,06,26,15,53,32.90
2021,06,26,15,54,32.90
2021,06,26,15,55,33.00
2021,06,26,15,56,33.00
2021,06,26,15,57,32.90
2021,06,26,15,58,32.80
2021,06,26,15,59,32.70
2021,06,26,16,00,32.60
2021,06,26,16,01,32.60
2021,06,26,16,02,32.80
2021,06,26,16,03,32.90
2021,06,26,16,04,33.00
2021,06,26,16,05,33.10
2021,06,26,16,06,33.10
2021,06,26,16,07,33.10
2021,06,26,16,08,33.10
2021,06,26,16,09,33.10
2021,06,26,16,10,33.10
2021,06,26,16,11,33.20
2021,06,26,16,12,33.20
2021,06,26,16,13,33.20
2021,06,26,16,14,33.20
2021,06,26,16,15,33.20
2021,06,26,16,16,33.30
2021,06,26,16,17,33.40
2021,06,26,16,18,33.40
2021,06,26,16,19,33.50
2021,06,26,16,20,33.50
2021,06,26,16,21,33.50
2021,06,26,16,22,33.40
2021,06,26,16,23,33.40
2021,06,26,16,24,33.50
2021,06,26,16,25,33.50
2021,06,26,16,26,33.60
2021,06,26,16,27,33.60
2021,06,26,16,28,33.70
2021,06,26,16,29,33.70
2021,06,26,16,30,33.80
2021,06,26,16,31,33.80
2021,06,26,16,32,33.80
2021,06,26,16,33,33.80
2021,06,26,16,34,33.80
2021,06,26,16,35,33.80
2021,06,26,16,36,33.80
2021,06,26,16,37,33.70
2021,06,26,16,38,33.70
2021,06,26,16,39,33.70
2021,06,26,16,40,33.80
2021,06,26,16,41,33.80
2021,06,26,16,42,34.00
2021,06,26,16,43,34.00
2021,06,26,16,44,34.10
2021,06,26,16,45,34.20
2021,06,26,16,46,34.20
2021,06,26,16,47,34.20
2021,06,26,16,48,34.20
2021,06,26,16,49,34.10
2021,06,26,16,50,34.10
2021,06,26,16,51,33.90
2021,06,26,16,52,33.80
2021,06,26,16,53,33.70
2021,06,26,16,54,33.70
2021,06,26,16,55,33.60
2021,06,26,16,56,33.60
2021,06,26,16,57,33.70
2021,06,26,16,58,33.70
2021,06,26,16,59,33.70
2021,06,26,17,00,33.80
2021,06,26,17,01,33.80
2021,06,26,17,02,34.00
2021,06,26,17,03,34.10
2021,06,26,17,04,34.10
2021,06,26,17,05,34.10
2021,06,26,17,06,34.10
2021,06,26,17,07,34.00
2021,06,26,17,08,34.00
2021,06,26,17,09,33.90
2021,06,26,17,10,33.80
2021,06,26,17,11,33.70
2021,06,26,17,12,33.70
2021,06,26,17,13,33.70
2021,06,26,17,14,33.60
2021,06,26,17,15,33.70
2021,06,26,17,16,33.70
2021,06,26,17,17,33.80
2021,06,26,17,18,33.80
2021,06,26,17,19,33.80